When you browse on this site, cookies collect data to enhance your experience and personalize the content and advertising you see.
Visit our Privacy Policy to learn more. By continuing to use the site, you agree to this use of cookies and data.
  • En España
  • Lista de países
  • Para 7 días
  • Temperatura del agua
  • Mapa Satelital
  • El tiempo en el mapa
  • Informadores
  • user-avatar
    Iniciar sesión

    Tiempo cada hora Al-Hasaka

    Hoy, 16 Diciembre, Domingo

    Tiempo Temperatura Precipitaciones Viento Presión Humedad
    00:00 +11°C° 0 mm 1 mps 740 mmHg 63%
    01:00 +11°C° 0 mm 1 mps 740 mmHg 64%
    02:00 +10°C° 0 mm 1 mps 740 mmHg 65%
    03:00 +10°C° 0 mm 1 mps 740 mmHg 66%
    04:00 +10°C° 0 mm 1 mps 739 mmHg 66%
    05:00 +10°C° 0 mm 1 mps 739 mmHg 66%
    06:00 +9°C° 0 mm 1 mps 739 mmHg 67%
    07:00 +10°C° 0 mm 1 mps 739 mmHg 64%
    08:00 +11°C° 0 mm 1 mps 739 mmHg 61%
    09:00 +12°C° 0 mm 1 mps 740 mmHg 59%
    10:00 +13°C° 0 mm 1 mps 740 mmHg 55%
    11:00 +14°C° 0 mm 1 mps 739 mmHg 51%
    12:00 +15°C° 0 mm 2 mps 739 mmHg 47%
    13:00 +15°C° 0 mm 2 mps 739 mmHg 45%
    14:00 +16°C° 0 mm 2 mps 739 mmHg 44%
    15:00 +16°C° 0 mm 2 mps 739 mmHg 43%
    16:00 +15°C° 0 mm 2 mps 739 mmHg 46%
    17:00 +14°C° 0 mm 3 mps 738 mmHg 50%
    18:00 +13°C° 0 mm 3 mps 738 mmHg 53%
    19:00 +13°C° 0.1 mm 3 mps 738 mmHg 54%
    20:00 +13°C° 0.1 mm 2 mps 738 mmHg 56%
    21:00 +13°C° 0.1 mm 2 mps 738 mmHg 57%
    22:00 +13°C° 0.7 mm 2 mps 738 mmHg 61%
    23:00 +11°C° 0.7 mm 3 mps 738 mmHg 65%

    Mañana, 17 Diciembre, Lunes

    Tiempo Temperatura Precipitaciones Viento Presión Humedad
    00:00 +11°C° 0.7 mm 3 mps 738 mmHg 68%
    01:00 +11°C° 0.9 mm 3 mps 738 mmHg 71%
    02:00 +10°C° 0.9 mm 3 mps 738 mmHg 74%
    03:00 +10°C° 0.9 mm 3 mps 738 mmHg 77%
    04:00 +10°C° 0.8 mm 4 mps 737 mmHg 77%
    05:00 +10°C° 0.8 mm 4 mps 737 mmHg 78%
    06:00 +9°C° 0.8 mm 5 mps 736 mmHg 78%
    07:00 +8°C° 1.9 mm 5 mps 736 mmHg 80%
    08:00 +8°C° 1.9 mm 4 mps 736 mmHg 83%
    09:00 +8°C° 1.9 mm 4 mps 736 mmHg 85%
    10:00 +8°C° 1.3 mm 4 mps 736 mmHg 85%
    11:00 +8°C° 1.3 mm 5 mps 736 mmHg 85%
    12:00 +8°C° 1.3 mm 5 mps 736 mmHg 86%
    13:00 +8°C° 0.9 mm 5 mps 736 mmHg 86%
    14:00 +8°C° 0.9 mm 5 mps 735 mmHg 86%
    15:00 +8°C° 0.9 mm 5 mps 735 mmHg 86%
    16:00 +8°C° 0.1 mm 4 mps 735 mmHg 86%
    17:00 +9°C° 0.1 mm 3 mps 735 mmHg 86%
    18:00 +9°C° 0.1 mm 3 mps 735 mmHg 85%
    19:00 +9°C° 0 mm 2 mps 735 mmHg 86%
    20:00 +9°C° 0 mm 2 mps 736 mmHg 86%
    21:00 +9°C° 0 mm 2 mps 736 mmHg 87%
    22:00 +8°C° 0 mm 2 mps 736 mmHg 88%
    23:00 +9°C° 0 mm 1 mps 736 mmHg 89%

    Pasado mañana, 18 Diciembre, Martes

    Tiempo Temperatura Precipitaciones Viento Presión Humedad
    00:00 +9°C° 0 mm 1 mps 736 mmHg 91%
    01:00 +9°C° 0 mm 1 mps 736 mmHg 91%
    02:00 +8°C° 0 mm 1 mps 736 mmHg 91%
    03:00 +8°C° 0 mm 1 mps 736 mmHg 92%
    04:00 +8°C° 0 mm 1 mps 736 mmHg 92%
    05:00 +8°C° 0 mm 1 mps 736 mmHg 92%
    06:00 +8°C° 0 mm 1 mps 736 mmHg 92%
    07:00 +8°C° 0 mm 1 mps 737 mmHg 89%
    08:00 +9°C° 0 mm 1 mps 737 mmHg 87%
    09:00 +10°C° 0 mm 1 mps 738 mmHg 84%
    10:00 +10°C° 0 mm 1 mps 738 mmHg 80%
    11:00 +11°C° 0 mm 1 mps 738 mmHg 76%
    12:00 +12°C° 0 mm 2 mps 738 mmHg 71%
    13:00 +13°C° 0 mm 2 mps 738 mmHg 70%
    14:00 +13°C° 0 mm 2 mps 738 mmHg 68%
    15:00 +14°C° 0 mm 2 mps 738 mmHg 67%
    16:00 +13°C° 0 mm 2 mps 738 mmHg 69%
    17:00 +13°C° 0 mm 2 mps 738 mmHg 71%
    18:00 +13°C° 0 mm 2 mps 738 mmHg 73%
    19:00 +13°C° 0 mm 2 mps 739 mmHg 74%
    20:00 +12°C° 0 mm 2 mps 739 mmHg 76%
    21:00 +12°C° 0 mm 2 mps 739 mmHg 77%
    22:00 +12°C° 0 mm 2 mps 739 mmHg 78%
    23:00 +12°C° 0 mm 2 mps 739 mmHg 79%

    19 Diciembre, Miércoles

    Tiempo Temperatura Precipitaciones Viento Presión Humedad
    00:00 +12°C° 0 mm 2 mps 739 mmHg 80%
    01:00 +12°C° 0 mm 2 mps 739 mmHg 81%
    02:00 +10°C° 0 mm 3 mps 739 mmHg 82%
    03:00 +10°C° 0 mm 3 mps 739 mmHg 82%
    04:00 +10°C° 0 mm 3 mps 739 mmHg 84%
    05:00 +10°C° 0 mm 3 mps 738 mmHg 85%
    06:00 +10°C° 0 mm 3 mps 738 mmHg 87%
    07:00 +10°C° 0 mm 4 mps 738 mmHg 86%
    08:00 +9°C° 0 mm 5 mps 738 mmHg 86%
    09:00 +9°C° 0 mm 5 mps 739 mmHg 86%
    10:00 +11°C° 0 mm 6 mps 738 mmHg 81%
    11:00 +13°C° 0 mm 6 mps 738 mmHg 76%
    12:00 +14°C° 0 mm 7 mps 738 mmHg 71%
    13:00 +14°C° 0 mm 7 mps 737 mmHg 70%
    14:00 +14°C° 0 mm 7 mps 736 mmHg 68%
    15:00 +15°C° 0 mm 7 mps 736 mmHg 67%
    16:00 +14°C° 0 mm 7 mps 735 mmHg 69%
    17:00 +14°C° 0 mm 7 mps 735 mmHg 72%
    18:00 +13°C° 0 mm 6 mps 735 mmHg 74%
    19:00 +12°C° 0 mm 7 mps 735 mmHg 76%
    20:00 +11°C° 0 mm 7 mps 735 mmHg 77%
    21:00 +11°C° 0 mm 7 mps 735 mmHg 78%
    22:00 +11°C° 0.1 mm 7 mps 735 mmHg 79%
    23:00 +11°C° 0.1 mm 7 mps 735 mmHg 80%

    20 Diciembre, Jueves

    Tiempo Temperatura Precipitaciones Viento Presión Humedad
    00:00 +11°C° 0.1 mm 7 mps 734 mmHg 80%
    01:00 +10°C° 1.3 mm 6 mps 734 mmHg 82%
    02:00 +10°C° 1.3 mm 6 mps 734 mmHg 84%
    03:00 +10°C° 1.3 mm 6 mps 734 mmHg 86%
    04:00 +10°C° 0.5 mm 6 mps 733 mmHg 87%
    05:00 +10°C° 0.5 mm 5 mps 733 mmHg 89%
    06:00 +10°C° 0.5 mm 5 mps 733 mmHg 90%
    07:00 +11°C° 0.3 mm 4 mps 734 mmHg 90%
    08:00 +11°C° 0.3 mm 4 mps 734 mmHg 89%
    09:00 +11°C° 0.3 mm 3 mps 734 mmHg 89%
    10:00 +12°C° 0.2 mm 3 mps 734 mmHg 84%
    11:00 +12°C° 0.2 mm 3 mps 734 mmHg 79%
    12:00 +14°C° 0.2 mm 2 mps 734 mmHg 74%
    13:00 +14°C° 0.1 mm 3 mps 734 mmHg 70%
    14:00 +14°C° 0.1 mm 3 mps 734 mmHg 67%
    15:00 +14°C° 0.1 mm 3 mps 734 mmHg 64%
    16:00 +14°C° 0.2 mm 3 mps 734 mmHg 67%
    17:00 +13°C° 0.2 mm 3 mps 734 mmHg 70%
    18:00 +13°C° 0.2 mm 2 mps 734 mmHg 73%
    19:00 +13°C° 0 mm 2 mps 735 mmHg 76%
    20:00 +12°C° 0 mm 2 mps 735 mmHg 78%
    21:00 +12°C° 0 mm 2 mps 735 mmHg 80%
    22:00 +12°C° 0 mm 2 mps 735 mmHg 81%
    23:00 +10°C° 0 mm 2 mps 735 mmHg 83%

    21 Diciembre, Viernes

    Tiempo Temperatura Precipitaciones Viento Presión Humedad
    00:00 +10°C° 0 mm 2 mps 736 mmHg 84%
    01:00 +10°C° 0.1 mm 2 mps 736 mmHg 85%
    02:00 +9°C° 0.1 mm 2 mps 736 mmHg 86%
    03:00 +9°C° 0.1 mm 2 mps 736 mmHg 87%
    04:00 +9°C° 0 mm 2 mps 736 mmHg 88%
    05:00 +8°C° 0 mm 2 mps 736 mmHg 88%
    06:00 +9°C° 0 mm 1 mps 736 mmHg 89%
    07:00 +9°C° 0 mm 2 mps 737 mmHg 87%
    08:00 +9°C° 0 mm 2 mps 737 mmHg 85%
    09:00 +9°C° 0 mm 2 mps 737 mmHg 83%
    10:00 +10°C° 0 mm 2 mps 737 mmHg 78%
    11:00 +12°C° 0 mm 2 mps 737 mmHg 73%
    12:00 +13°C° 0 mm 2 mps 737 mmHg 69%
    13:00 +14°C° 0 mm 2 mps 737 mmHg 66%
    14:00 +14°C° 0 mm 2 mps 737 mmHg 63%
    15:00 +14°C° 0 mm 2 mps 737 mmHg 60%
    16:00 +14°C° 0 mm 2 mps 737 mmHg 64%
    17:00 +13°C° 0 mm 2 mps 737 mmHg 67%
    18:00 +13°C° 0 mm 1 mps 737 mmHg 70%
    19:00 +12°C° 0 mm 1 mps 737 mmHg 72%
    20:00 +12°C° 0 mm 1 mps 738 mmHg 73%
    21:00 +12°C° 0 mm 1 mps 738 mmHg 74%
    22:00 +11°C° 0 mm 1 mps 738 mmHg 75%
    23:00 +10°C° 0 mm 2 mps 738 mmHg 75%
    Mostrar más